星链-37434(STARLINK-37434)

导读

STARLINK-37434(NORAD编号69252)是SpaceX星链(Starlink)卫星互联网星座的成员卫星,属于低轨通信卫星,旨在为全球提供高速宽带互联网服务。星链卫星采用相控阵天线技术,支持激光星间链路,具备高速通信能力。作为低轨卫星,它运行在距地面数百公里轨道,通过星座组网实现全球连续覆盖。目前公开渠道未记录该卫星存在异常事件,它与其他星链卫星共同服务于地面用户,支持传统终端及手机直连等多元业务,持续推进全球卫星互联网部署。

Basic Information
目录编号:
69252
目录名称:
STARLINK-37434
国际标识:
2026-117Q
轨道中心:
EARTH
卫星名称:
星链-37434
卫星全名:
星链-37434(STARLINK-37434)
卫星状态:
在轨 (已飞行105 天)
发射日期:
2026-05-29 UTC
国别 :
美国 (US)
星等 :
--
Orbit Information
数据来源 国际轨道数据
星历时间: 2026-09-09T21:54:39+0800
1天前
查看轨道信息
半长轴: 6840.858km
偏心率: 0.0002298
轨道倾角: 53.151°
近地点辐角 87.326°
升交点赤经 204.577°
平近点角 272.801°
近地点: 461.148km
远地点: 464.294km
周期: 93.848分钟
每日圈数: 15.343942
Detailed Information
固有亮度:
5
最大亮度:
2.5
卫星平台:
Starlink V1.0
覆盖范围:
全球
运营商:
太空探索技术公司
运营商所在国:
美国
制造商(研发单位):
太空探索技术公司
制造商所在国:
美国
使用方式:
暂无
Satellite Introduction
Starlink 计划是 SpaceX 推出的全球卫星互联网项目,通过发射低轨道卫星,为全球尤其是偏远地区提供高速、低延迟的互联网服务。自 2019 年起,Starlink 已部署数千颗卫星,旨在缩小全球数字鸿沟,推动互联网普及。该项目还为军事、航空等行业提供通信支持,带来广泛经济效益。
2D Orbit Map
3D Orbit Map
Orbit Altitude Analysis Chart
Orbit Inclination Analysis Chart
Orbit Comprehensive Analysis Chart
View Comprehensive Chart
Conjunction Data List
Event ID Objects TCA Miss Dist (km) Collision Risk Probability Collision Risk Index (CRI) Action
CDM_260912-092506-550106-925221
2026-09-12T
09:25:13+0000
0.117 km
中距离
9.756834E-4 高风险 0.95
CDM_260911-223606-856006-925221
2026-09-11T
22:36:19+0000
0.279 km
中距离
2.498197E-4 高风险 0.83
CDM_260913-005006-230706-925221
2026-09-13T
00:50:16+0000
0.973 km
远距离
2.576047E-5 中风险 0.63
CDM_260912-180106-550106-925221
2026-09-12T
18:01:06+0000
0.960 km
远距离
1.875882E-5 中风险 0.6
CDM_260912-055906-925206-984721
2026-09-12T
05:59:59+0000
1.156 km
极远距离
1.434572E-5 中风险 0.58
CDM_260912-160906-925206-984721
2026-09-12T
16:09:37+0000
1.398 km
极远距离
7.432069E-6 低风险 0.52
CDM_260911-155106-663406-925221
2026-09-11T
15:51:08+0000
1.485 km
极远距离
6.001404E-6 低风险 0.51
CDM_260912-114806-502206-925221
2026-09-12T
11:48:19+0000
1.350 km
极远距离
4.419362E-6 低风险 0.48
CDM_260912-050806-663406-925221
2026-09-12T
05:08:21+0000
1.864 km
极远距离
3.011277E-6 低风险 0.45
CDM_260913-082906-343806-925221
2026-09-13T
08:29:32+0000
2.012 km
极远距离
2.456918E-6 低风险 0.43
Miss Distance Evolution Trend with All Objects
Collision Probability Evolution Trend with All Objects